Hourly Weather Otrez

Today, 30 July, Friday

Time Temperature Precipitation Wind Pressure Humidity
00:00 +21°C° 0.1 mm 1 mps 741 mmHg 81%
01:00 +21°C° 0 mm 1 mps 741 mmHg 81%
02:00 +21°C° 0 mm 1 mps 741 mmHg 81%
03:00 +21°C° 0 mm 1 mps 741 mmHg 81%
04:00 +22°C° 0 mm 1 mps 741 mmHg 81%
05:00 +22°C° 0 mm 1 mps 741 mmHg 80%
06:00 +22°C° 0 mm 1 mps 741 mmHg 79%
07:00 +24°C° 0 mm 1 mps 741 mmHg 71%
08:00 +26°C° 0 mm 2 mps 741 mmHg 64%
09:00 +28°C° 0 mm 2 mps 741 mmHg 56%
10:00 +30°C° 0 mm 3 mps 741 mmHg 50%
11:00 +31°C° 0 mm 3 mps 741 mmHg 44%
12:00 +34°C° 0 mm 4 mps 741 mmHg 38%
13:00 +33°C° 0 mm 4 mps 740 mmHg 39%
14:00 +33°C° 0 mm 4 mps 740 mmHg 41%
15:00 +33°C° 0 mm 4 mps 739 mmHg 43%
16:00 +29°C° 0.5 mm 4 mps 739 mmHg 54%
17:00 +27°C° 0.5 mm 3 mps 739 mmHg 66%
18:00 +25°C° 0.5 mm 3 mps 739 mmHg 77%
19:00 +24°C° 1.2 mm 3 mps 739 mmHg 82%
20:00 +22°C° 1.2 mm 4 mps 739 mmHg 86%
21:00 +21°C° 1.2 mm 4 mps 739 mmHg 91%
22:00 +21°C° 0 mm 3 mps 739 mmHg 91%
23:00 +21°C° 0 mm 3 mps 739 mmHg 92%

Tomorrow, 31 July, Saturday

Time Temperature Precipitation Wind Pressure Humidity
00:00 +20°C° 0 mm 2 mps 739 mmHg 93%
01:00 +20°C° 0 mm 2 mps 740 mmHg 94%
02:00 +20°C° 0 mm 3 mps 740 mmHg 94%
03:00 +19°C° 0 mm 3 mps 740 mmHg 95%
04:00 +19°C° 0 mm 3 mps 740 mmHg 94%
05:00 +19°C° 0 mm 3 mps 741 mmHg 93%
06:00 +19°C° 0 mm 3 mps 741 mmHg 92%
07:00 +21°C° 0 mm 4 mps 741 mmHg 82%
08:00 +23°C° 0 mm 4 mps 741 mmHg 72%
09:00 +25°C° 0 mm 5 mps 742 mmHg 61%
10:00 +27°C° 0 mm 5 mps 742 mmHg 53%
11:00 +28°C° 0 mm 5 mps 742 mmHg 45%
12:00 +30°C° 0 mm 6 mps 742 mmHg 37%
13:00 +30°C° 0 mm 6 mps 742 mmHg 35%
14:00 +32°C° 0 mm 6 mps 742 mmHg 34%
15:00 +32°C° 0 mm 6 mps 742 mmHg 32%
16:00 +32°C° 0 mm 5 mps 742 mmHg 34%
17:00 +30°C° 0 mm 5 mps 742 mmHg 36%
18:00 +30°C° 0 mm 4 mps 742 mmHg 38%
19:00 +28°C° 0 mm 4 mps 743 mmHg 44%
20:00 +26°C° 0 mm 3 mps 743 mmHg 50%
21:00 +24°C° 0 mm 2 mps 743 mmHg 56%
22:00 +23°C° 0 mm 2 mps 743 mmHg 57%
23:00 +23°C° 0 mm 2 mps 744 mmHg 59%

Day after tomorrow, 1 August, Sunday

Time Temperature Precipitation Wind Pressure Humidity
00:00 +21°C° 0 mm 2 mps 744 mmHg 60%
01:00 +21°C° 0 mm 2 mps 744 mmHg 62%
02:00 +20°C° 0 mm 2 mps 744 mmHg 64%
03:00 +19°C° 0 mm 2 mps 745 mmHg 67%
04:00 +20°C° 0 mm 2 mps 745 mmHg 67%
05:00 +20°C° 0 mm 2 mps 745 mmHg 66%
06:00 +21°C° 0 mm 1 mps 745 mmHg 66%
07:00 +23°C° 0 mm 2 mps 746 mmHg 59%
08:00 +25°C° 0 mm 2 mps 746 mmHg 52%
09:00 +28°C° 0 mm 2 mps 746 mmHg 45%
10:00 +29°C° 0 mm 2 mps 746 mmHg 40%
11:00 +30°C° 0 mm 2 mps 746 mmHg 36%
12:00 +31°C° 0 mm 3 mps 746 mmHg 31%
13:00 +33°C° 0 mm 3 mps 746 mmHg 29%
14:00 +34°C° 0 mm 2 mps 745 mmHg 28%
15:00 +34°C° 0 mm 2 mps 745 mmHg 26%
16:00 +34°C° 0 mm 2 mps 745 mmHg 29%
17:00 +34°C° 0 mm 2 mps 745 mmHg 32%
18:00 +32°C° 0 mm 1 mps 745 mmHg 35%
19:00 +30°C° 0 mm 2 mps 745 mmHg 39%
20:00 +28°C° 0 mm 2 mps 745 mmHg 43%
21:00 +26°C° 0 mm 3 mps 745 mmHg 47%
22:00 +26°C° 0 mm 3 mps 745 mmHg 48%
23:00 +25°C° 0 mm 4 mps 745 mmHg 49%

2 August, Monday

Time Temperature Precipitation Wind Pressure Humidity
00:00 +25°C° 0 mm 4 mps 744 mmHg 50%
01:00 +24°C° 0 mm 3 mps 745 mmHg 53%
02:00 +24°C° 0 mm 3 mps 745 mmHg 55%
03:00 +22°C° 0 mm 3 mps 745 mmHg 58%
04:00 +22°C° 0 mm 3 mps 745 mmHg 61%
05:00 +22°C° 0 mm 3 mps 745 mmHg 63%
06:00 +22°C° 0 mm 3 mps 745 mmHg 66%
07:00 +25°C° 0 mm 3 mps 745 mmHg 60%
08:00 +27°C° 0 mm 4 mps 744 mmHg 54%
09:00 +30°C° 0 mm 4 mps 744 mmHg 48%
10:00 +32°C° 0 mm 4 mps 744 mmHg 45%
11:00 +33°C° 0 mm 4 mps 744 mmHg 41%
12:00 +34°C° 0 mm 4 mps 744 mmHg 38%
13:00 +35°C° 0 mm 5 mps 743 mmHg 34%
14:00 +36°C° 0 mm 5 mps 743 mmHg 30%
15:00 +37°C° 0 mm 5 mps 742 mmHg 26%
16:00 +36°C° 0 mm 4 mps 742 mmHg 29%
17:00 +34°C° 0 mm 3 mps 741 mmHg 31%
18:00 +32°C° 0 mm 2 mps 741 mmHg 34%
19:00 +30°C° 0 mm 2 mps 741 mmHg 37%
20:00 +29°C° 0 mm 2 mps 741 mmHg 41%
21:00 +27°C° 0 mm 2 mps 741 mmHg 44%
22:00 +27°C° 0 mm 2 mps 741 mmHg 45%
23:00 +26°C° 0 mm 2 mps 741 mmHg 47%

3 August, Tuesday

Time Temperature Precipitation Wind Pressure Humidity
00:00 +25°C° 0 mm 2 mps 741 mmHg 48%
01:00 +24°C° 0.2 mm 3 mps 741 mmHg 57%
02:00 +22°C° 0.2 mm 3 mps 741 mmHg 65%
03:00 +21°C° 0.2 mm 4 mps 742 mmHg 74%
04:00 +22°C° 0 mm 3 mps 742 mmHg 75%
05:00 +22°C° 0 mm 3 mps 742 mmHg 77%
06:00 +23°C° 0 mm 2 mps 742 mmHg 78%
07:00 +24°C° 0 mm 2 mps 742 mmHg 71%
08:00 +26°C° 0 mm 3 mps 742 mmHg 64%
09:00 +27°C° 0 mm 4 mps 742 mmHg 57%
10:00 +27°C° 0 mm 4 mps 742 mmHg 59%
11:00 +26°C° 0 mm 5 mps 743 mmHg 60%
12:00 +26°C° 0 mm 6 mps 743 mmHg 61%
13:00 +26°C° 0.2 mm 5 mps 743 mmHg 64%
14:00 +25°C° 0.2 mm 5 mps 743 mmHg 67%
15:00 +25°C° 0.2 mm 4 mps 743 mmHg 70%
16:00 +25°C° 0.2 mm 4 mps 743 mmHg 69%
17:00 +26°C° 0.2 mm 4 mps 743 mmHg 67%
18:00 +26°C° 0.2 mm 3 mps 743 mmHg 66%
19:00 +24°C° 0.2 mm 3 mps 743 mmHg 73%
20:00 +23°C° 0.2 mm 2 mps 744 mmHg 79%
21:00 +20°C° 0.2 mm 2 mps 744 mmHg 86%
22:00 +20°C° 0 mm 2 mps 744 mmHg 87%
23:00 +19°C° 0 mm 2 mps 744 mmHg 88%

4 August, Wednesday

Time Temperature Precipitation Wind Pressure Humidity
00:00 +19°C° 0 mm 2 mps 744 mmHg 90%
01:00 +18°C° 0 mm 2 mps 744 mmHg 90%
02:00 +18°C° 0 mm 2 mps 745 mmHg 89%
03:00 +18°C° 0 mm 1 mps 745 mmHg 89%
04:00 +17°C° 0 mm 2 mps 745 mmHg 87%
05:00 +17°C° 0 mm 2 mps 745 mmHg 85%
06:00 +18°C° 0 mm 2 mps 745 mmHg 84%
07:00 +20°C° 0 mm 2 mps 746 mmHg 75%
08:00 +22°C° 0 mm 3 mps 746 mmHg 67%
09:00 +24°C° 0 mm 3 mps 746 mmHg 58%
10:00 +26°C° 0 mm 3 mps 746 mmHg 52%
11:00 +27°C° 0 mm 3 mps 746 mmHg 46%
12:00 +28°C° 0 mm 3 mps 746 mmHg 40%
13:00 +28°C° 0 mm 3 mps 746 mmHg 40%
14:00 +28°C° 0 mm 2 mps 746 mmHg 39%
15:00 +28°C° 0 mm 2 mps 746 mmHg 39%
16:00 +28°C° 0 mm 2 mps 746 mmHg 40%
17:00 +27°C° 0 mm 3 mps 746 mmHg 42%
18:00 +27°C° 0 mm 3 mps 746 mmHg 43%
19:00 +26°C° 0 mm 2 mps 747 mmHg 48%
20:00 +24°C° 0 mm 2 mps 747 mmHg 53%
21:00 +23°C° 0 mm 2 mps 747 mmHg 58%
22:00 +21°C° 0 mm 2 mps 747 mmHg 61%
23:00 +20°C° 0 mm 2 mps 747 mmHg 63%
Show more